Location: Unspecified
(0.0000°N, 0.0000°E)
Time: 11:13:52
(UTC+00:00)

Courier 1B - Pass Details

Date: 25 November 2019
Orbit: 963 x 1209 km, 28.3° (Epoch: 14 December)

Event Time Altitude Azimuth Distance (km) Brightness Sun altitude
Rises 00:38:33 0° 255° (WSW) 4,107 - -65.8°
Reaches altitude 10° 00:41:35 10° 261° (W) 3,141 - -65.4°
Maximum altitude 00:48:56 43° 330° (NNW) 1,613 - -64.4°
Drops below altitude 10° 00:56:05 10° 40° (NE) 3,051 - -63.3°
Sets 00:59:00 0° 47° (NE) 3,978 - -62.8°
